#timestamp,LO_Frequency,Hit,StdDev 
1589900415.1,286047005.6,N
1589900435.9,286047005.2,N
1589900455.7,286047005.9,N
1589900475.5,286047005.8,N
1589900495.4,286047005.6,N
1589900515.2,286047005.6,N
1589900535.0,286047003.3,N
1589900536.0,286047003.3,N
1589900555.8,286047005.3,N
1589900575.6,286047005.5,N
1589900595.5,286047003.3,N
1589900615.3,286047003.8,N
1589900635.1,286047003.9,N
1589900655.9,286047003.6,N
1589900675.7,286047002.9,N
1589900695.6,286047005.3,N
1589900715.4,286047004.8,N
1589900735.2,286047007.1,Y
1589900755.1,286047001.6,P
1589900756.0,286047001.6,N
1589900775.8,286047001.9,N
1589900795.7,286047004.0,Y
1589900815.5,286047000.9,P
1589900835.3,286047000.8,N
1589900855.2,286047000.9,N
1589900875.0,286047000.9,N
1589900875.9,286047000.9,N
1589900895.7,286047000.3,N
1589900915.6,286047000.1,N
1589900935.4,286047002.3,Y
1589900955.3,286047000.0,P
1589900975.1,286047001.0,N
1589900976.0,286047001.0,N
1589900995.8,286047002.5,Y
1589901015.7,286046999.7,P
1589901035.5,286047000.5,N
1589901055.4,286047000.9,N
1589901075.2,286046999.9,N
1589901095.0,286047000.6,N
1589901095.9,286047000.6,N
1589901115.8,286047001.1,N
1589901135.6,286046998.3,Y
1589901155.4,286046999.0,P
1589901175.3,286046997.4,P
1589901195.1,286046994.9,P
1589901215.9,286046996.0,N
1589901235.7,286046997.4,N
1589901255.5,286046996.8,N
1589901275.4,286046997.2,N
1589901295.2,286046997.9,N
1589901315.0,286046999.1,N
1589901315.9,286046999.1,N
1589901335.8,286047001.1,N
1589901355.6,286047000.9,N
1589901375.5,286046998.6,N
1589901395.3,286046999.5,N
1589901415.1,286046999.6,N
1589901435.9,286046998.8,N
1589901455.7,286046999.4,N
1589901475.5,286046999.3,N
1589901495.4,286046999.5,N
1589901515.2,286046998.7,N
1589901535.1,286046999.0,N
1589901536.0,286046999.0,N
1589901555.8,286046999.4,N
1589901575.6,286046997.3,N
1589901595.5,286046994.9,Y
1589901615.3,286046998.7,P
1589901635.2,286046999.2,P
1589901655.9,286046996.7,P
1589901675.7,286046995.3,Y
1589901695.6,286046999.5,P
1589901715.4,286046998.4,N
1589901735.3,286046999.1,N
1589901755.1,286046997.2,Y
1589901756.0,286046997.2,P
1589901775.8,286046998.6,N
1589901795.7,286046998.7,N
1589901815.5,286046998.4,N
1589901835.3,286047001.2,N
1589901855.2,286046998.6,N
1589901875.0,286047000.9,N
1589901875.9,286047000.9,N
1589901895.8,286047001.1,N
1589901915.6,286046999.7,N
1589901935.4,286047002.0,N
1589901955.3,286047000.8,N
1589901975.1,286046999.6,N
1589901995.8,286046999.1,N
1589902015.7,286046997.0,N
1589902035.5,286046997.4,N
1589902055.4,286046998.0,N
1589902075.2,286046997.1,N
1589902095.0,286046996.8,N
1589902095.9,286046996.8,N
1589902115.8,286046997.5,N
1589902135.6,286046994.9,Y
1589902155.4,286046998.9,P
1589902175.3,286046998.5,P
1589902195.1,286046998.1,P
1589902215.9,286046998.1,Y
1589902235.7,286047001.1,P
1589902255.5,286046998.3,N
1589902275.4,286046999.3,N
1589902295.2,286046999.2,N
1589902315.0,286046998.9,N
1589902315.9,286046998.9,N
1589902335.8,286046999.4,N
1589902355.6,286046997.8,N
1589902375.5,286046996.9,Y
1589902395.3,286047000.8,P
1589902415.1,286047001.0,N
1589902435.9,286047000.4,N
1589902455.7,286046998.7,N
1589902475.5,286047000.8,N
1589902495.4,286046998.2,N
1589902515.2,286047000.1,N
1589902535.1,286046998.3,N
1589902536.0,286046998.3,N
1589902555.8,286047000.9,N
1589902575.6,286046998.8,N
1589902595.5,286046999.5,N
1589902615.3,286046996.7,Y
1589902635.1,286046997.0,P
1589902655.9,286046996.5,N
1589902675.7,286046997.2,N
1589902695.6,286046995.2,Y
1589902715.4,286046998.4,P
1589902735.2,286047000.5,N
1589902755.1,286047002.3,N
1589902756.0,286047002.3,N
1589902775.8,286047000.3,N
1589902795.6,286047001.2,N
1589902815.5,286046999.4,N
1589902835.3,286046999.9,N
1589902855.2,286047002.7,N
1589902875.9,286047000.8,N
1589902895.7,286046999.2,N
1589902915.6,286047001.6,N
1589902935.4,286047002.9,N
1589902955.2,286047004.6,N
1589902975.1,286047008.5,Y
1589902976.0,286047008.5,P
1589902995.8,286047009.1,N
1589903015.7,286047004.5,N
1589903035.5,286047005.6,N
1589903055.3,286047004.5,N
1589903075.2,286047005.4,N
1589903095.0,286047003.1,N
1589903095.9,286047003.1,N
1589903115.7,286047001.7,N
1589903165.6,286047003.2,E
1589903175.5,286047001.7,N
1589903195.4,286046998.1,P
1589903215.2,286046999.4,N
1589903235.0,286046998.4,N
1589903235.9,286046998.4,N
1589903255.8,286046996.9,N
1589903275.6,286047001.0,N
1589903295.5,286046999.9,N
1589903315.3,286046999.9,N
1589903335.1,286046999.7,N
1589903355.9,286047003.8,N
1589903375.7,286047004.3,N
1589903395.5,286047001.5,N
1589903415.4,286047002.1,N
1589903435.2,286047004.3,N
1589903455.1,286047003.4,N
1589903456.0,286047003.4,N
1589903475.8,286047003.1,N
1589903495.6,286047003.4,N
1589903515.5,286047004.3,N
1589903535.3,286047000.4,N
1589903555.1,286046998.1,N
1589903575.9,286046998.7,N
1589903595.7,286046998.4,N
1589903615.6,286046998.7,N
1589903635.4,286046998.5,N
1589903655.2,286046998.2,N
1589903675.1,286046998.9,N
1589903676.0,286046998.9,N
1589903695.8,286046999.1,N
1589903715.7,286046999.1,N
1589903735.5,286046994.9,N
1589903755.3,286046998.0,N
1589903775.2,286046996.9,N
1589903795.9,286046998.3,N
1589903815.7,286046997.4,N
1589903835.6,286046994.9,N
1589903855.4,286046996.3,N
1589903875.3,286046993.4,N
1589903895.1,286046993.4,N
1589903896.0,286046993.4,N
1589903915.8,286046993.6,N
1589903935.7,286046993.7,N
1589903955.5,286046995.9,N
1589903975.3,286046996.3,N
1589903995.2,286046995.0,N
